• In Uzbekistan
  • List of Countries
  • For 7 days
  • Water Temperature
  • Satellite Maps
  • Weather Map
  • Weather Widgets
  • user-avatar
    Login

    Hourly Weather Hobart

    Today, 18 January, Wednesday

    Time Temperature Precipitation Wind Pressure Humidity
    00:00 +13°C° 0.1 mm 6 mps 738 mmHg 80%
    01:00 +11°C° 0.1 mm 7 mps 738 mmHg 78%
    02:00 +11°C° 0 mm 8 mps 739 mmHg 77%
    03:00 +10°C° 0 mm 9 mps 739 mmHg 75%
    04:00 +10°C° 0 mm 6 mps 738 mmHg 71%
    05:00 +10°C° 0 mm 8 mps 739 mmHg 69%
    06:00 +11°C° 0 mm 10 mps 739 mmHg 66%
    07:00 +11°C° 0 mm 11 mps 740 mmHg 64%
    08:00 +12°C° 0 mm 11 mps 741 mmHg 58%
    09:00 +13°C° 0 mm 11 mps 742 mmHg 52%
    10:00 +14°C° 0 mm 11 mps 742 mmHg 45%
    11:00 +16°C° 0 mm 11 mps 743 mmHg 43%
    12:00 +16°C° 0 mm 11 mps 744 mmHg 42%
    13:00 +17°C° 0 mm 11 mps 744 mmHg 40%
    14:00 +16°C° 0 mm 10 mps 745 mmHg 41%
    15:00 +16°C° 0 mm 10 mps 745 mmHg 43%
    16:00 +16°C° 0 mm 7 mps 745 mmHg 42%
    17:00 +15°C° 0 mm 7 mps 746 mmHg 47%
    18:00 +14°C° 0 mm 7 mps 747 mmHg 53%
    19:00 +12°C° 0 mm 7 mps 747 mmHg 58%
    20:00 +10°C° 0 mm 6 mps 748 mmHg 67%
    21:00 +8°C° 0 mm 5 mps 748 mmHg 76%
    22:00 +6°C° 0 mm 4 mps 749 mmHg 89%
    23:00 +6°C° 0 mm 4 mps 749 mmHg 90%

    Tomorrow, 19 January, Thursday

    Time Temperature Precipitation Wind Pressure Humidity
    00:00 +5°C° 0 mm 4 mps 749 mmHg 92%
    01:00 +5°C° 0 mm 4 mps 749 mmHg 94%
    02:00 +4°C° 0 mm 4 mps 749 mmHg 95%
    03:00 +4°C° 0 mm 3 mps 749 mmHg 95%
    04:00 +3°C° 0 mm 3 mps 749 mmHg 96%
    05:00 +5°C° 0 mm 3 mps 749 mmHg 88%
    06:00 +8°C° 0 mm 3 mps 749 mmHg 80%
    07:00 +10°C° 0 mm 2 mps 749 mmHg 72%
    08:00 +14°C° 0 mm 2 mps 749 mmHg 61%
    09:00 +16°C° 0 mm 2 mps 749 mmHg 51%
    10:00 +19°C° 0 mm 2 mps 749 mmHg 41%
    11:00 +20°C° 0 mm 3 mps 749 mmHg 38%
    12:00 +21°C° 0 mm 3 mps 748 mmHg 35%
    13:00 +22°C° 0 mm 3 mps 748 mmHg 32%
    14:00 +21°C° 0 mm 4 mps 747 mmHg 36%
    15:00 +20°C° 0 mm 4 mps 746 mmHg 40%
    16:00 +20°C° 0 mm 5 mps 746 mmHg 44%
    17:00 +18°C° 0 mm 4 mps 745 mmHg 53%
    18:00 +15°C° 0 mm 4 mps 745 mmHg 61%
    19:00 +13°C° 0 mm 4 mps 745 mmHg 69%
    20:00 +13°C° 0 mm 4 mps 745 mmHg 72%
    21:00 +12°C° 0 mm 4 mps 744 mmHg 75%
    22:00 +12°C° 0 mm 4 mps 744 mmHg 78%
    23:00 +11°C° 0 mm 4 mps 743 mmHg 81%

    Day after tomorrow, 20 January, Friday

    Time Temperature Precipitation Wind Pressure Humidity
    00:00 +11°C° 0 mm 4 mps 742 mmHg 84%
    01:00 +10°C° 0 mm 4 mps 741 mmHg 87%
    02:00 +10°C° 0.2 mm 4 mps 741 mmHg 89%
    03:00 +10°C° 0.2 mm 4 mps 740 mmHg 91%
    04:00 +10°C° 0.2 mm 3 mps 740 mmHg 94%
    05:00 +10°C° 1.2 mm 3 mps 739 mmHg 94%
    06:00 +12°C° 1.2 mm 2 mps 738 mmHg 95%
    07:00 +12°C° 1.2 mm 2 mps 738 mmHg 96%
    08:00 +12°C° 1.3 mm 2 mps 737 mmHg 96%
    09:00 +13°C° 1.3 mm 2 mps 737 mmHg 96%
    10:00 +12°C° 1.3 mm 3 mps 737 mmHg 95%
    11:00 +13°C° 1 mm 3 mps 737 mmHg 91%
    12:00 +14°C° 1 mm 3 mps 737 mmHg 87%
    13:00 +14°C° 1 mm 3 mps 737 mmHg 83%
    14:00 +14°C° 0.2 mm 3 mps 737 mmHg 85%
    15:00 +14°C° 0.2 mm 4 mps 738 mmHg 87%
    16:00 +13°C° 0.2 mm 4 mps 738 mmHg 89%
    17:00 +13°C° 0.1 mm 4 mps 739 mmHg 89%
    18:00 +13°C° 0.1 mm 5 mps 739 mmHg 88%
    19:00 +12°C° 0.1 mm 5 mps 740 mmHg 88%
    20:00 +10°C° 0 mm 5 mps 741 mmHg 89%
    21:00 +10°C° 0 mm 4 mps 741 mmHg 91%
    22:00 +8°C° 0 mm 4 mps 742 mmHg 92%
    23:00 +7°C° 0 mm 4 mps 742 mmHg 93%

    21 January, Saturday

    Time Temperature Precipitation Wind Pressure Humidity
    00:00 +7°C° 0 mm 4 mps 742 mmHg 94%
    01:00 +6°C° 0 mm 4 mps 743 mmHg 95%
    02:00 +6°C° 0 mm 4 mps 743 mmHg 96%
    03:00 +7°C° 0 mm 3 mps 743 mmHg 96%
    04:00 +5°C° 0 mm 3 mps 743 mmHg 96%
    05:00 +8°C° 0 mm 3 mps 744 mmHg 92%
    06:00 +9°C° 0 mm 3 mps 744 mmHg 88%
    07:00 +10°C° 0 mm 3 mps 745 mmHg 84%
    08:00 +12°C° 0 mm 4 mps 745 mmHg 75%
    09:00 +15°C° 0 mm 4 mps 745 mmHg 66%
    10:00 +18°C° 0 mm 4 mps 745 mmHg 57%
    11:00 +19°C° 0 mm 4 mps 745 mmHg 53%
    12:00 +20°C° 0 mm 4 mps 746 mmHg 50%
    13:00 +22°C° 0 mm 4 mps 746 mmHg 46%
    14:00 +22°C° 0 mm 4 mps 746 mmHg 47%
    15:00 +22°C° 0 mm 4 mps 746 mmHg 49%
    16:00 +21°C° 0 mm 4 mps 746 mmHg 50%
    17:00 +20°C° 0 mm 4 mps 746 mmHg 58%
    18:00 +18°C° 0 mm 3 mps 747 mmHg 65%
    19:00 +17°C° 0 mm 2 mps 747 mmHg 73%
    20:00 +15°C° 0 mm 2 mps 747 mmHg 80%
    21:00 +12°C° 0 mm 2 mps 748 mmHg 88%
    22:00 +10°C° 0 mm 1 mps 748 mmHg 95%
    23:00 +10°C° 0 mm 1 mps 748 mmHg 96%

    22 January, Sunday

    Time Temperature Precipitation Wind Pressure Humidity
    00:00 +10°C° 0 mm 1 mps 747 mmHg 96%
    01:00 +10°C° 0 mm 1 mps 747 mmHg 96%
    02:00 +9°C° 0 mm 2 mps 747 mmHg 96%
    03:00 +9°C° 0 mm 2 mps 747 mmHg 95%
    04:00 +9°C° 0 mm 2 mps 747 mmHg 95%
    05:00 +10°C° 0 mm 2 mps 747 mmHg 90%
    06:00 +13°C° 0 mm 1 mps 747 mmHg 84%
    07:00 +15°C° 0 mm 1 mps 748 mmHg 78%
    08:00 +19°C° 0 mm 1 mps 748 mmHg 66%
    09:00 +22°C° 0 mm 1 mps 747 mmHg 55%
    10:00 +24°C° 0 mm 1 mps 747 mmHg 43%
    11:00 +26°C° 0 mm 2 mps 747 mmHg 40%
    12:00 +28°C° 0 mm 2 mps 747 mmHg 37%
    13:00 +29°C° 0 mm 2 mps 747 mmHg 34%
    14:00 +29°C° 0 mm 3 mps 747 mmHg 35%
    15:00 +29°C° 0 mm 3 mps 746 mmHg 36%
    16:00 +28°C° 0 mm 3 mps 746 mmHg 37%
    17:00 +26°C° 0 mm 3 mps 746 mmHg 48%
    18:00 +24°C° 0 mm 3 mps 746 mmHg 59%
    19:00 +20°C° 0 mm 2 mps 747 mmHg 71%
    20:00 +18°C° 0 mm 2 mps 747 mmHg 79%
    21:00 +15°C° 0 mm 2 mps 747 mmHg 87%
    22:00 +13°C° 0 mm 1 mps 747 mmHg 96%
    23:00 +12°C° 0 mm 1 mps 746 mmHg 96%

    23 January, Monday

    Time Temperature Precipitation Wind Pressure Humidity
    00:00 +12°C° 0 mm 1 mps 746 mmHg 96%
    01:00 +12°C° 0 mm 1 mps 746 mmHg 97%
    02:00 +12°C° 0 mm 1 mps 745 mmHg 97%
    03:00 +12°C° 0 mm 2 mps 745 mmHg 97%
    04:00 +10°C° 0 mm 2 mps 745 mmHg 97%
    05:00 +13°C° 0 mm 2 mps 744 mmHg 92%
    06:00 +15°C° 0 mm 2 mps 744 mmHg 87%
    07:00 +16°C° 0 mm 2 mps 744 mmHg 82%
    08:00 +19°C° 0 mm 2 mps 744 mmHg 71%
    09:00 +23°C° 0 mm 2 mps 743 mmHg 61%
    10:00 +26°C° 0 mm 2 mps 743 mmHg 50%
    11:00 +27°C° 0 mm 2 mps 742 mmHg 44%
    12:00 +29°C° 0 mm 3 mps 741 mmHg 38%
    13:00 +31°C° 0 mm 3 mps 740 mmHg 33%
    14:00 +32°C° 0 mm 4 mps 740 mmHg 37%
    15:00 +30°C° 0 mm 4 mps 739 mmHg 41%
    16:00 +29°C° 0 mm 4 mps 738 mmHg 45%
    17:00 +27°C° 0 mm 4 mps 738 mmHg 56%
    18:00 +25°C° 0 mm 3 mps 738 mmHg 67%
    19:00 +21°C° 0 mm 3 mps 737 mmHg 79%
    20:00 +20°C° 0 mm 2 mps 737 mmHg 82%
    21:00 +19°C° 0 mm 2 mps 737 mmHg 86%
    22:00 +18°C° 0 mm 2 mps 737 mmHg 90%
    23:00 +18°C° 0 mm 2 mps 736 mmHg 90%
    Show more